Погода в Новоперунове

Россия / Алтайский край     53°52′34″N   83°30′07″E
темп.,
°C
ветер,
м/с
пор.,
м/с
влажн.,
%
обл.,
%
осадки,
мм/ч
давл.,
гПа
погр.,
м
25 июня, сб
сб2501:00+16ююз228922 0.3 100718
04:00+15юз339173 0.0 100739
07:00+16ююз378916 0.0 1007186
10:00+23юз576753 0.0 1006626
13:00+27юз5755100 0.1 10051549
16:00+29юз4749100 0.0 10042069
19:00+22юз497817 0.1 1004223
22:00+20ссз149493 4.3 100482
26 июня, вс
вс2601:00+18юз229431 6.0 100430
04:00+18юв239457 0.0 100253
07:00+19ююв4129293 0.0 1000274
10:00+25ююв715675 0.0 998670
13:00+29ююз8125521 0.0 9961401
16:00+32ююз6114534 0.0 994966
19:00+28з611584 0.0 995373
22:00+22зсз511812 0.0 998360
27 июня, пн
пн2701:00+18з339521 0.1 100058
04:00+17зюз2296100 0.3 100039
07:00+18юв239798 1.4 99995
10:00+23ююв688285 0.4 998899
13:00+26юз486948 1.1 9961205
16:00+20юз61092100 5.4 997691
19:00+19зсз61078100 6.1 9991186
22:00+13зсз48724 0.1 1003229
28 июня, вт
вт2801:00+10зюз37840 0.1 1005150
04:00+9зюз410890 0.0 1006284
07:00+11зюз410810 0.0 1007420
10:00+14з457089 0.0 10081104
13:00+15зсз3468100 0.0 10081014
16:00+17з356192 0.0 10081451
19:00+16сз346992 0.0 1008531
22:00+13с117791 0.0 100811
29 июня, ср
ср2901:00+11юв2285100 0.0 100819
04:00+10юв229159 0.0 100728
07:00+12юв36860 0.0 1006158
10:00+18юв576869 0.0 1003643
13:00+22ююв6854100 0.0 10001348
16:00+23ююв5958100 0.0 9971412
19:00+24юв59676 0.0 994535
22:00+13зсз611938 2.8 997219